Time,TemperatureF,DewpointF,PressureIn,WindDirection,WindDirectionDegrees,WindSpeedMPH,WindSpeedGustMPH,Humidity,HourlyPrecipIn,Conditions,Clouds,dailyrainin,SoftwareType,DateUTC
2013-03-30 00:00:00,59.4,41.8,30.30,North,0,0.0,0.0,52,0.00,,---,0.00,VWS V14.01,2013-03-30 04:00:00,
2013-03-30 00:01:00,59.4,41.8,30.30,North,0,0.0,0.0,52,0.00,,---,0.00,VWS V14.01,2013-03-30 04:01:00,
2013-03-30 00:02:00,59.4,41.8,30.30,North,0,0.0,0.0,52,0.00,,---,0.00,VWS V14.01,2013-03-30 04:02:00,
2013-03-30 00:07:00,59.2,42.1,30.30,North,0,0.0,0.0,53,0.00,,---,0.00,VWS V14.01,2013-03-30 04:07:00,
2013-03-30 00:11:00,59.0,41.9,30.30,North,0,0.0,0.0,53,0.00,,---,0.00,VWS V14.01,2013-03-30 04:11:00,
2013-03-30 00:17:00,58.8,41.7,30.30,North,0,0.0,0.0,53,0.00,,---,0.00,VWS V14.01,2013-03-30 04:17:00,
2013-03-30 00:23:00,58.6,42.1,30.30,North,0,0.0,0.0,54,0.00,,---,0.00,VWS V14.01,2013-03-30 04:23:00,
2013-03-30 00:28:00,58.3,41.7,30.30,ENE,68,2.2,2.7,54,0.00,,---,0.00,VWS V14.01,2013-03-30 04:28:00,
2013-03-30 00:33:00,58.1,41.6,30.30,SW,225,0.0,0.0,54,0.00,,---,0.00,VWS V14.01,2013-03-30 04:33:00,
2013-03-30 00:40:00,58.1,42.0,30.30,WSW,248,1.1,1.1,55,0.00,,---,0.00,VWS V14.01,2013-03-30 04:40:00,
2013-03-30 00:45:00,58.1,42.0,30.30,North,0,0.0,0.0,55,0.00,,---,0.00,VWS V14.01,2013-03-30 04:45:00,
2013-03-30 00:50:00,58.1,41.6,30.30,East,90,0.0,0.0,54,0.00,,---,0.00,VWS V14.01,2013-03-30 04:50:00,
2013-03-30 00:55:00,58.1,41.6,30.30,NW,315,0.0,0.0,54,0.00,,---,0.00,VWS V14.01,2013-03-30 04:55:00,
2013-03-30 01:02:00,58.1,41.6,30.30,WNW,292,0.0,0.0,54,0.00,,---,0.00,VWS V14.01,2013-03-30 05:02:00,
2013-03-30 01:07:00,58.1,41.6,30.30,West,270,0.0,0.0,54,0.00,,---,0.00,VWS V14.01,2013-03-30 05:07:00,
2013-03-30 01:12:00,58.1,41.6,30.30,NW,315,0.0,0.0,54,0.00,,---,0.00,VWS V14.01,2013-03-30 05:12:00,
2013-03-30 01:17:00,58.1,41.6,30.30,NW,315,0.0,0.0,54,0.00,,---,0.00,VWS V14.01,2013-03-30 05:17:00,
2013-03-30 01:23:00,58.1,41.6,30.30,North,0,0.0,0.0,54,0.00,,---,0.00,VWS V14.01,2013-03-30 05:23:00,
2013-03-30 01:28:00,58.1,41.6,30.30,ESE,112,1.1,1.1,54,0.00,,---,0.00,VWS V14.01,2013-03-30 05:28:00,
2013-03-30 01:33:00,57.4,40.4,30.30,North,0,0.0,0.0,53,0.00,,---,0.00,VWS V14.01,2013-03-30 05:33:00,
2013-03-30 01:38:00,57.2,40.2,30.30,NW,315,0.0,0.0,53,0.00,,---,0.00,VWS V14.01,2013-03-30 05:38:00,
2013-03-30 01:43:00,57.0,40.1,30.30,North,0,0.0,0.0,53,0.00,,---,0.00,VWS V14.01,2013-03-30 05:43:00,
2013-03-30 01:48:00,56.8,39.9,30.30,North,0,0.0,0.0,53,0.00,,---,0.00,VWS V14.01,2013-03-30 05:48:00,
2013-03-30 01:54:00,56.8,39.9,30.30,NNW,338,0.0,0.0,53,0.00,,---,0.00,VWS V14.01,2013-03-30 05:54:00,
2013-03-30 01:59:00,56.7,39.7,30.30,NNW,338,0.0,0.0,53,0.00,,---,0.00,VWS V14.01,2013-03-30 05:59:00,
2013-03-30 02:04:00,56.5,39.6,30.30,NNW,338,0.0,0.0,53,0.00,,---,0.00,VWS V14.01,2013-03-30 06:04:00,
2013-03-30 02:09:00,56.3,39.4,30.30,North,0,0.0,0.0,53,0.00,,---,0.00,VWS V14.01,2013-03-30 06:09:00,
2013-03-30 02:15:00,56.3,39.4,30.30,North,0,0.0,0.0,53,0.00,,---,0.00,VWS V14.01,2013-03-30 06:15:00,
2013-03-30 02:21:00,56.1,39.2,30.30,North,0,0.0,0.0,53,0.00,,---,0.00,VWS V14.01,2013-03-30 06:21:00,
2013-03-30 02:26:00,55.9,39.1,30.30,North,0,0.0,0.0,53,0.00,,---,0.00,VWS V14.01,2013-03-30 06:26:00,
2013-03-30 02:31:00,55.9,39.1,30.27,East,90,0.0,0.0,53,0.00,,---,0.00,VWS V14.01,2013-03-30 06:31:00,
2013-03-30 02:36:00,55.8,38.9,30.27,East,90,0.0,0.0,53,0.00,,---,0.00,VWS V14.01,2013-03-30 06:36:00,
2013-03-30 02:42:00,55.8,38.9,30.27,SW,225,0.0,0.0,53,0.00,,---,0.00,VWS V14.01,2013-03-30 06:42:00,
2013-03-30 02:47:00,55.8,38.9,30.27,NW,315,0.0,0.0,53,0.00,,---,0.00,VWS V14.01,2013-03-30 06:47:00,
2013-03-30 02:53:00,55.8,38.9,30.27,NW,315,0.0,0.0,53,0.00,,---,0.00,VWS V14.01,2013-03-30 06:53:00,
2013-03-30 02:58:00,55.6,38.7,30.27,NW,315,0.0,0.0,53,0.00,,---,0.00,VWS V14.01,2013-03-30 06:58:00,
2013-03-30 03:04:00,55.6,38.7,30.30,NW,315,0.0,0.0,53,0.00,,---,0.00,VWS V14.01,2013-03-30 07:04:00,
2013-03-30 03:09:00,55.6,38.7,30.30,North,0,0.0,0.0,53,0.00,,---,0.00,VWS V14.01,2013-03-30 07:09:00,
2013-03-30 03:14:00,55.4,38.6,30.30,NNW,338,0.0,0.0,53,0.00,,---,0.00,VWS V14.01,2013-03-30 07:14:00,
2013-03-30 03:19:00,55.2,38.4,30.27,NNW,338,0.0,0.0,53,0.00,,---,0.00,VWS V14.01,2013-03-30 07:19:00,
2013-03-30 03:25:00,55.2,38.4,30.27,NNW,338,0.0,0.0,53,0.00,,---,0.00,VWS V14.01,2013-03-30 07:25:00,
2013-03-30 03:30:00,55.0,38.7,30.27,NNW,338,0.0,0.0,54,0.00,,---,0.00,VWS V14.01,2013-03-30 07:30:00,
2013-03-30 03:35:00,55.0,38.7,30.27,East,90,0.0,0.0,54,0.00,,---,0.00,VWS V14.01,2013-03-30 07:35:00,
2013-03-30 03:40:00,54.9,38.5,30.27,East,90,0.0,0.0,54,0.00,,---,0.00,VWS V14.01,2013-03-30 07:40:00,
2013-03-30 03:46:00,54.9,38.5,30.27,NW,315,0.0,0.0,54,0.00,,---,0.00,VWS V14.01,2013-03-30 07:46:00,
2013-03-30 03:51:00,54.9,38.5,30.27,NW,315,0.0,0.0,54,0.00,,---,0.00,VWS V14.01,2013-03-30 07:51:00,
2013-03-30 03:57:00,54.9,38.5,30.27,ENE,68,0.0,0.0,54,0.00,,---,0.00,VWS V14.01,2013-03-30 07:57:00,
2013-03-30 04:02:00,54.7,38.8,30.27,East,90,0.0,0.0,55,0.00,,---,0.00,VWS V14.01,2013-03-30 08:02:00,
2013-03-30 04:07:00,54.5,38.7,30.27,West,270,0.0,0.0,55,0.00,,---,0.00,VWS V14.01,2013-03-30 08:07:00,
2013-03-30 04:13:00,54.5,38.7,30.27,SW,225,0.0,0.0,55,0.00,,---,0.00,VWS V14.01,2013-03-30 08:13:00,
2013-03-30 04:18:00,54.5,38.7,30.27,West,270,0.0,0.0,55,0.00,,---,0.00,VWS V14.01,2013-03-30 08:18:00,
2013-03-30 04:23:00,54.5,38.7,30.27,North,0,0.0,0.0,55,0.00,,---,0.00,VWS V14.01,2013-03-30 08:23:00,
2013-03-30 04:28:00,54.5,38.7,30.27,WSW,248,0.0,0.0,55,0.00,,---,0.00,VWS V14.01,2013-03-30 08:28:00,
2013-03-30 04:34:00,54.5,39.1,30.27,WSW,248,0.0,0.0,56,0.00,,---,0.00,VWS V14.01,2013-03-30 08:34:00,
2013-03-30 04:39:00,54.5,39.1,30.27,WSW,248,0.0,0.0,56,0.00,,---,0.00,VWS V14.01,2013-03-30 08:39:00,
2013-03-30 04:45:00,54.5,39.1,30.24,WSW,248,0.0,0.0,56,0.00,,---,0.00,VWS V14.01,2013-03-30 08:45:00,
2013-03-30 04:50:00,54.3,39.0,30.24,SE,135,0.0,0.0,56,0.00,,---,0.00,VWS V14.01,2013-03-30 08:50:00,
2013-03-30 04:56:00,54.1,38.8,30.24,SE,135,0.0,0.0,56,0.00,,---,0.00,VWS V14.01,2013-03-30 08:56:00,
2013-03-30 05:02:00,54.1,38.8,30.24,SE,135,0.0,0.0,56,0.00,,---,0.00,VWS V14.01,2013-03-30 09:02:00,
2013-03-30 05:08:00,54.0,38.6,30.24,SE,135,0.0,0.0,56,0.00,,---,0.00,VWS V14.01,2013-03-30 09:08:00,
2013-03-30 05:13:00,54.0,39.1,30.24,SE,135,0.0,0.0,57,0.00,,---,0.00,VWS V14.01,2013-03-30 09:13:00,
2013-03-30 05:19:00,54.0,39.1,30.24,SE,135,0.0,0.0,57,0.00,,---,0.00,VWS V14.01,2013-03-30 09:19:00,
2013-03-30 05:24:00,53.8,38.9,30.24,ESE,112,0.0,0.0,57,0.00,,---,0.00,VWS V14.01,2013-03-30 09:24:00,
2013-03-30 05:29:00,53.8,38.9,30.24,NW,315,0.0,0.0,57,0.00,,---,0.00,VWS V14.01,2013-03-30 09:29:00,
2013-03-30 05:34:00,53.8,38.9,30.24,NNW,338,0.0,0.0,57,0.00,,---,0.00,VWS V14.01,2013-03-30 09:34:00,
2013-03-30 05:35:00,53.8,38.9,30.24,NNW,338,0.0,0.0,57,0.00,,---,0.00,VWS V14.01,2013-03-30 09:35:00,
2013-03-30 05:40:00,53.8,39.4,30.24,SSW,202,0.0,0.0,58,0.00,,---,0.00,VWS V14.01,2013-03-30 09:40:00,
2013-03-30 05:45:00,53.6,39.2,30.24,SSW,202,0.0,0.0,58,0.00,,---,0.00,VWS V14.01,2013-03-30 09:45:00,
2013-03-30 05:50:00,53.6,39.2,30.24,SSW,202,0.0,0.0,58,0.00,,---,0.00,VWS V14.01,2013-03-30 09:50:00,
2013-03-30 05:56:00,53.4,39.5,30.24,SSE,158,0.0,0.0,59,0.00,,---,0.00,VWS V14.01,2013-03-30 09:56:00,
2013-03-30 06:02:00,53.4,39.9,30.24,SSE,158,0.0,0.0,60,0.00,,---,0.00,VWS V14.01,2013-03-30 10:02:00,
2013-03-30 06:07:00,53.4,39.9,30.24,SSE,158,0.0,0.0,60,0.00,,---,0.00,VWS V14.01,2013-03-30 10:07:00,
2013-03-30 06:12:00,53.2,39.7,30.24,SE,135,0.0,0.0,60,0.00,,---,0.00,VWS V14.01,2013-03-30 10:12:00,
2013-03-30 06:17:00,53.1,39.6,30.27,East,90,0.0,0.0,60,0.00,,---,0.00,VWS V14.01,2013-03-30 10:17:00,
2013-03-30 06:22:00,53.2,39.7,30.27,East,90,0.0,0.0,60,0.00,,---,0.00,VWS V14.01,2013-03-30 10:22:00,
2013-03-30 06:27:00,53.1,40.0,30.27,ESE,112,0.0,0.0,61,0.00,,---,0.00,VWS V14.01,2013-03-30 10:27:00,
2013-03-30 06:32:00,53.1,40.0,30.24,ESE,112,0.0,0.0,61,0.00,,---,0.00,VWS V14.01,2013-03-30 10:32:00,
2013-03-30 06:38:00,53.1,40.0,30.24,NNW,338,0.0,0.0,61,0.00,,---,0.00,VWS V14.01,2013-03-30 10:38:00,
2013-03-30 06:43:00,52.9,39.8,30.24,NW,315,0.0,0.0,61,0.00,,---,0.00,VWS V14.01,2013-03-30 10:43:00,
2013-03-30 06:48:00,52.9,40.2,30.27,SE,135,0.0,0.0,62,0.00,,---,0.00,VWS V14.01,2013-03-30 10:48:00,
2013-03-30 06:53:00,52.9,40.2,30.27,WNW,292,0.0,0.0,62,0.00,,---,0.00,VWS V14.01,2013-03-30 10:53:00,
2013-03-30 06:58:00,52.9,40.2,30.27,NNW,338,0.0,0.0,62,0.00,,---,0.00,VWS V14.01,2013-03-30 10:58:00,
2013-03-30 07:03:00,52.9,40.2,30.27,SSE,158,0.0,0.0,62,0.00,,---,0.00,VWS V14.01,2013-03-30 11:03:00,
2013-03-30 07:09:00,52.9,40.6,30.27,SSE,158,0.0,0.0,63,0.00,,---,0.00,VWS V14.01,2013-03-30 11:09:00,
2013-03-30 07:15:00,52.9,40.6,30.27,East,90,0.0,0.0,63,0.00,,---,0.00,VWS V14.01,2013-03-30 11:15:00,
2013-03-30 07:20:00,52.9,40.6,30.27,East,90,0.0,0.0,63,0.00,,---,0.00,VWS V14.01,2013-03-30 11:20:00,
2013-03-30 07:25:00,52.9,40.6,30.27,East,90,0.0,0.0,63,0.00,,---,0.00,VWS V14.01,2013-03-30 11:25:00,
2013-03-30 07:30:00,52.7,40.5,30.27,East,90,0.0,0.0,63,0.00,,---,0.00,VWS V14.01,2013-03-30 11:30:00,
2013-03-30 07:35:00,52.7,40.9,30.27,SE,135,0.0,0.0,64,0.00,,---,0.00,VWS V14.01,2013-03-30 11:35:00,
2013-03-30 07:40:00,52.7,40.9,30.27,SE,135,0.0,0.0,64,0.00,,---,0.00,VWS V14.01,2013-03-30 11:40:00,
2013-03-30 07:45:00,52.7,40.9,30.27,SE,135,0.0,0.0,64,0.00,,---,0.00,VWS V14.01,2013-03-30 11:45:00,
2013-03-30 07:52:00,52.9,41.5,30.27,ENE,68,0.0,0.0,65,0.00,,---,0.00,VWS V14.01,2013-03-30 11:52:00,
2013-03-30 07:58:00,52.9,41.5,30.27,ESE,112,0.0,0.0,65,0.00,,---,0.00,VWS V14.01,2013-03-30 11:58:00,
2013-03-30 08:03:00,53.1,41.6,30.27,SE,135,0.0,0.0,65,0.00,,---,0.00,VWS V14.01,2013-03-30 12:03:00,
2013-03-30 08:08:00,53.2,42.2,30.27,ESE,112,0.0,0.0,66,0.00,,---,0.00,VWS V14.01,2013-03-30 12:08:00,
2013-03-30 08:13:00,53.4,42.4,30.27,ESE,112,0.0,0.0,66,0.00,,---,0.00,VWS V14.01,2013-03-30 12:13:00,
2013-03-30 08:19:00,53.6,42.5,30.27,SE,135,1.1,2.5,66,0.00,,---,0.00,VWS V14.01,2013-03-30 12:19:00,
2013-03-30 08:25:00,54.1,43.0,30.27,ENE,68,0.0,3.1,66,0.00,,---,0.00,VWS V14.01,2013-03-30 12:25:00,
2013-03-30 08:30:00,54.5,43.4,30.27,East,90,0.0,1.6,66,0.00,,---,0.00,VWS V14.01,2013-03-30 12:30:00,
2013-03-30 08:35:00,54.9,43.7,30.27,SSE,158,0.0,0.9,66,0.00,,---,0.00,VWS V14.01,2013-03-30 12:35:00,
2013-03-30 08:40:00,55.4,44.2,30.27,ESE,112,2.7,2.7,66,0.00,,---,0.00,VWS V14.01,2013-03-30 12:40:00,
2013-03-30 08:46:00,56.1,44.9,30.27,SSE,158,2.7,3.1,66,0.00,,---,0.00,VWS V14.01,2013-03-30 12:46:00,
2013-03-30 08:52:00,56.5,45.3,30.27,ENE,68,5.4,5.4,66,0.00,,---,0.00,VWS V14.01,2013-03-30 12:52:00,
2013-03-30 08:57:00,57.2,46.0,30.27,ESE,112,3.6,3.6,66,0.00,,---,0.00,VWS V14.01,2013-03-30 12:57:00,
2013-03-30 09:02:00,57.9,46.2,30.30,ESE,112,2.0,3.8,65,0.00,,---,0.00,VWS V14.01,2013-03-30 13:02:00,
2013-03-30 09:08:00,58.5,46.8,30.30,SE,135,3.1,6.0,65,0.00,,---,0.00,VWS V14.01,2013-03-30 13:08:00,
2013-03-30 09:13:00,59.0,46.8,30.30,South,180,2.9,5.8,64,0.00,,---,0.00,VWS V14.01,2013-03-30 13:13:00,
2013-03-30 09:18:00,59.5,47.4,30.27,SSE,158,4.3,4.3,64,0.00,,---,0.00,VWS V14.01,2013-03-30 13:18:00,
2013-03-30 09:24:00,60.3,47.6,30.27,ESE,112,0.0,3.8,63,0.00,,---,0.00,VWS V14.01,2013-03-30 13:24:00,
2013-03-30 09:30:00,60.8,47.7,30.27,SSW,202,1.6,1.6,62,0.00,,---,0.00,VWS V14.01,2013-03-30 13:30:00,
2013-03-30 09:35:00,61.5,48.0,30.30,South,180,2.2,6.3,61,0.00,,---,0.00,VWS V14.01,2013-03-30 13:35:00,
2013-03-30 09:40:00,62.2,48.2,30.30,ESE,112,2.9,3.4,60,0.00,,---,0.00,VWS V14.01,2013-03-30 13:40:00,
2013-03-30 09:45:00,62.8,48.3,30.30,SSE,158,6.0,6.0,59,0.00,,---,0.00,VWS V14.01,2013-03-30 13:45:00,
2013-03-30 09:50:00,63.3,47.8,30.30,SE,135,2.7,2.7,57,0.00,,---,0.00,VWS V14.01,2013-03-30 13:50:00,
2013-03-30 09:56:00,63.9,48.3,30.30,SSW,202,0.9,4.9,57,0.00,,---,0.00,VWS V14.01,2013-03-30 13:56:00,
2013-03-30 10:02:00,64.9,48.4,30.30,SSW,202,3.8,5.4,55,0.00,,---,0.00,VWS V14.01,2013-03-30 14:02:00,
2013-03-30 10:07:00,65.3,47.8,30.30,SE,135,2.0,4.7,53,0.00,,---,0.00,VWS V14.01,2013-03-30 14:07:00,
2013-03-30 10:12:00,65.8,47.7,30.30,SE,135,1.3,4.0,52,0.00,,---,0.00,VWS V14.01,2013-03-30 14:12:00,
2013-03-30 10:18:00,66.6,47.9,30.30,North,0,2.7,4.3,51,0.00,,---,0.00,VWS V14.01,2013-03-30 14:18:00,
2013-03-30 10:23:00,67.1,47.9,30.30,SSW,202,2.2,2.9,50,0.00,,---,0.00,VWS V14.01,2013-03-30 14:23:00,
2013-03-30 10:28:00,67.6,48.4,30.30,SSW,202,2.7,2.9,50,0.00,,---,0.00,VWS V14.01,2013-03-30 14:28:00,
2013-03-30 10:33:00,68.2,47.8,30.30,SE,135,3.4,3.4,48,0.00,,---,0.00,VWS V14.01,2013-03-30 14:33:00,
2013-03-30 10:39:00,68.9,47.9,30.30,South,180,3.1,7.8,47,0.00,,---,0.00,VWS V14.01,2013-03-30 14:39:00,
2013-03-30 10:44:00,69.3,47.6,30.30,SE,135,2.9,3.4,46,0.00,,---,0.00,VWS V14.01,2013-03-30 14:44:00,
2013-03-30 10:49:00,69.8,46.9,30.30,SSE,158,7.6,7.6,44,0.00,,---,0.00,VWS V14.01,2013-03-30 14:49:00,
2013-03-30 10:56:00,70.2,46.0,30.30,South,180,7.2,7.2,42,0.00,,---,0.00,VWS V14.01,2013-03-30 14:56:00,
2013-03-30 11:01:00,70.7,45.9,30.30,SW,225,4.3,6.0,41,0.00,,---,0.00,VWS V14.01,2013-03-30 15:01:00,
2013-03-30 11:07:00,71.2,45.0,30.30,WSW,248,5.4,7.4,39,0.00,,---,0.00,VWS V14.01,2013-03-30 15:07:00,
2013-03-30 11:12:00,71.6,44.0,30.30,SSW,202,3.8,6.3,37,0.00,,---,0.00,VWS V14.01,2013-03-30 15:12:00,
2013-03-30 11:17:00,72.0,43.6,30.30,SSW,202,5.8,5.8,36,0.00,,---,0.00,VWS V14.01,2013-03-30 15:17:00,
2013-03-30 11:23:00,72.1,43.0,30.30,SSW,202,8.5,8.5,35,0.00,,---,0.00,VWS V14.01,2013-03-30 15:23:00,
2013-03-30 11:28:00,72.9,43.6,30.30,SSW,202,8.5,8.5,35,0.00,,---,0.00,VWS V14.01,2013-03-30 15:28:00,
2013-03-30 11:33:00,72.9,42.1,30.30,SSW,202,8.5,8.5,33,0.00,,---,0.00,VWS V14.01,2013-03-30 15:33:00,
2013-03-30 11:38:00,73.0,42.3,30.30,SSW,202,8.5,8.5,33,0.00,,---,0.00,VWS V14.01,2013-03-30 15:38:00,
2013-03-30 11:43:00,73.6,41.9,30.30,SE,135,7.4,7.6,32,0.00,,---,0.00,VWS V14.01,2013-03-30 15:43:00,
2013-03-30 11:48:00,73.6,41.9,30.30,SSW,202,8.7,8.7,32,0.00,,---,0.00,VWS V14.01,2013-03-30 15:48:00,
2013-03-30 11:53:00,73.8,42.1,30.30,SSW,202,7.6,9.2,32,0.00,,---,0.00,VWS V14.01,2013-03-30 15:53:00,
2013-03-30 11:58:00,73.9,42.2,30.30,SSE,158,6.5,6.5,32,0.00,,---,0.00,VWS V14.01,2013-03-30 15:58:00,
2013-03-30 12:03:00,74.5,42.7,30.30,WSW,248,2.9,5.6,32,0.00,,---,0.00,VWS V14.01,2013-03-30 16:03:00,
2013-03-30 12:08:00,74.7,42.9,30.30,South,180,8.1,8.1,32,0.00,,---,0.00,VWS V14.01,2013-03-30 16:08:00,
2013-03-30 12:13:00,75.0,43.2,30.30,SSW,202,4.3,5.4,32,0.00,,---,0.00,VWS V14.01,2013-03-30 16:13:00,
2013-03-30 12:18:00,75.2,42.5,30.30,SSW,202,7.6,8.1,31,0.00,,---,0.00,VWS V14.01,2013-03-30 16:18:00,
2013-03-30 12:24:00,75.0,43.2,30.30,WSW,248,3.6,6.3,32,0.00,,---,0.00,VWS V14.01,2013-03-30 16:24:00,
2013-03-30 12:29:00,75.4,42.7,30.30,SSW,202,7.4,7.4,31,0.00,,---,0.00,VWS V14.01,2013-03-30 16:29:00,
2013-03-30 12:35:00,75.2,42.5,30.30,SSW,202,5.8,5.8,31,0.00,,---,0.00,VWS V14.01,2013-03-30 16:35:00,
2013-03-30 12:40:00,75.4,42.7,30.30,SSW,202,3.1,5.6,31,0.00,,---,0.00,VWS V14.01,2013-03-30 16:40:00,
2013-03-30 12:45:00,75.6,42.8,30.30,SSW,202,2.2,3.8,31,0.00,,---,0.00,VWS V14.01,2013-03-30 16:45:00,
2013-03-30 12:50:00,75.7,43.0,30.30,SE,135,5.4,5.4,31,0.00,,---,0.00,VWS V14.01,2013-03-30 16:50:00,
2013-03-30 12:56:00,75.9,42.3,30.30,WSW,248,3.6,5.4,30,0.00,,---,0.00,VWS V14.01,2013-03-30 16:56:00,
2013-03-30 13:01:00,76.3,42.6,30.27,NNE,22,3.4,5.4,30,0.00,,---,0.00,VWS V14.01,2013-03-30 17:01:00,
2013-03-30 13:07:00,76.3,41.7,30.27,SW,225,3.1,5.4,29,0.00,,---,0.00,VWS V14.01,2013-03-30 17:07:00,
2013-03-30 13:12:00,76.3,40.8,30.27,South,180,9.8,9.8,28,0.00,,---,0.00,VWS V14.01,2013-03-30 17:12:00,
2013-03-30 13:17:00,76.1,40.7,30.27,SE,135,2.9,7.4,28,0.00,,---,0.00,VWS V14.01,2013-03-30 17:17:00,
2013-03-30 13:22:00,75.9,41.4,30.27,SW,225,6.7,7.6,29,0.00,,---,0.00,VWS V14.01,2013-03-30 17:22:00,
2013-03-30 13:28:00,75.9,43.1,30.27,SSW,202,4.0,8.5,31,0.00,,---,0.00,VWS V14.01,2013-03-30 17:28:00,
2013-03-30 13:34:00,76.1,43.3,30.27,SSE,158,5.8,5.8,31,0.00,,---,0.00,VWS V14.01,2013-03-30 17:34:00,
2013-03-30 13:40:00,76.3,43.5,30.27,SW,225,3.1,5.6,31,0.00,,---,0.00,VWS V14.01,2013-03-30 17:40:00,
2013-03-30 13:45:00,76.6,43.8,30.27,WNW,292,6.9,6.9,31,0.00,,---,0.00,VWS V14.01,2013-03-30 17:45:00,
2013-03-30 13:51:00,76.8,43.9,30.27,WSW,248,6.3,9.4,31,0.00,,---,0.00,VWS V14.01,2013-03-30 17:51:00,
2013-03-30 13:56:00,76.8,44.8,30.27,SW,225,7.8,7.8,32,0.00,,---,0.00,VWS V14.01,2013-03-30 17:56:00,
2013-03-30 14:02:00,77.0,44.1,30.27,SW,225,7.8,7.8,31,0.00,,---,0.00,VWS V14.01,2013-03-30 18:02:00,
2013-03-30 14:07:00,76.8,43.9,30.27,SW,225,7.8,7.8,31,0.00,,---,0.00,VWS V14.01,2013-03-30 18:07:00,
2013-03-30 14:12:00,76.8,44.8,30.27,SW,225,7.8,7.8,32,0.00,,---,0.00,VWS V14.01,2013-03-30 18:12:00,
2013-03-30 14:17:00,77.2,44.2,30.27,SW,225,7.8,7.8,31,0.00,,---,0.00,VWS V14.01,2013-03-30 18:17:00,
2013-03-30 14:23:00,77.0,44.1,30.27,SW,225,2.5,6.5,31,0.00,,---,0.00,VWS V14.01,2013-03-30 18:23:00,
2013-03-30 14:28:00,77.0,44.9,30.27,SW,225,2.9,3.6,32,0.00,,---,0.00,VWS V14.01,2013-03-30 18:28:00,
2013-03-30 14:33:00,77.0,44.1,30.27,SSW,202,7.2,7.2,31,0.00,,---,0.00,VWS V14.01,2013-03-30 18:33:00,
2013-03-30 14:38:00,77.0,44.1,30.27,SE,135,4.3,5.4,31,0.00,,---,0.00,VWS V14.01,2013-03-30 18:38:00,
2013-03-30 14:44:00,76.8,43.9,30.27,WSW,248,3.8,6.0,31,0.00,,---,0.00,VWS V14.01,2013-03-30 18:44:00,
2013-03-30 14:49:00,76.8,43.9,30.27,WSW,248,2.7,5.8,31,0.00,,---,0.00,VWS V14.01,2013-03-30 18:49:00,
2013-03-30 14:54:00,77.2,44.2,30.27,SW,225,3.4,3.8,31,0.00,,---,0.00,VWS V14.01,2013-03-30 18:54:00,
2013-03-30 14:59:00,77.0,44.1,30.27,WSW,248,2.9,5.8,31,0.00,,---,0.00,VWS V14.01,2013-03-30 18:59:00,
2013-03-30 15:05:00,77.2,44.2,30.24,SSW,202,2.7,3.4,31,0.00,,---,0.00,VWS V14.01,2013-03-30 19:05:00,
2013-03-30 15:10:00,77.0,44.1,30.24,WSW,248,6.0,6.3,31,0.00,,---,0.00,VWS V14.01,2013-03-30 19:10:00,
2013-03-30 15:16:00,77.2,44.2,30.24,NW,315,3.1,3.4,31,0.00,,---,0.00,VWS V14.01,2013-03-30 19:16:00,
2013-03-30 15:21:00,77.4,44.4,30.24,SSE,158,9.4,9.4,31,0.00,,---,0.00,VWS V14.01,2013-03-30 19:21:00,
2013-03-30 15:26:00,77.2,44.2,30.24,SSW,202,3.1,6.0,31,0.00,,---,0.00,VWS V14.01,2013-03-30 19:26:00,
2013-03-30 15:31:00,77.4,44.4,30.24,SW,225,1.6,4.0,31,0.00,,---,0.00,VWS V14.01,2013-03-30 19:31:00,
2013-03-30 15:37:00,77.5,44.5,30.24,SSW,202,6.0,6.0,31,0.00,,---,0.00,VWS V14.01,2013-03-30 19:37:00,
2013-03-30 15:43:00,77.5,44.5,30.24,NW,315,3.1,3.1,31,0.00,,---,0.00,VWS V14.01,2013-03-30 19:43:00,
2013-03-30 15:48:00,77.9,44.9,30.24,SSW,202,3.6,3.6,31,0.00,,---,0.00,VWS V14.01,2013-03-30 19:48:00,
2013-03-30 15:54:00,78.1,45.0,30.24,WSW,248,4.9,6.3,31,0.00,,---,0.00,VWS V14.01,2013-03-30 19:54:00,
2013-03-30 15:59:00,78.3,45.2,30.24,West,270,4.7,4.7,31,0.00,,---,0.00,VWS V14.01,2013-03-30 19:59:00,
2013-03-30 16:04:00,78.6,45.5,30.24,NW,315,2.0,2.5,31,0.00,,---,0.00,VWS V14.01,2013-03-30 20:04:00,
2013-03-30 16:09:00,78.8,45.6,30.24,West,270,6.0,6.0,31,0.00,,---,0.00,VWS V14.01,2013-03-30 20:09:00,
2013-03-30 16:15:00,79.0,45.8,30.24,SSW,202,3.1,3.8,31,0.00,,---,0.00,VWS V14.01,2013-03-30 20:15:00,
2013-03-30 16:20:00,78.8,45.6,30.24,South,180,2.2,4.0,31,0.00,,---,0.00,VWS V14.01,2013-03-30 20:20:00,
2013-03-30 16:25:00,78.1,45.0,30.24,SSW,202,3.1,3.6,31,0.00,,---,0.00,VWS V14.01,2013-03-30 20:25:00,
2013-03-30 16:30:00,77.9,44.9,30.24,SW,225,3.1,3.8,31,0.00,,---,0.00,VWS V14.01,2013-03-30 20:30:00,
2013-03-30 16:35:00,77.5,44.5,30.24,WSW,248,1.3,4.0,31,0.00,,---,0.00,VWS V14.01,2013-03-30 20:35:00,
2013-03-30 16:41:00,77.5,44.5,30.24,SSW,202,2.9,4.0,31,0.00,,---,0.00,VWS V14.01,2013-03-30 20:41:00,
2013-03-30 16:46:00,77.2,44.2,30.24,South,180,5.4,5.4,31,0.00,,---,0.00,VWS V14.01,2013-03-30 20:46:00,
2013-03-30 16:51:00,76.8,43.9,30.24,SW,225,1.3,4.0,31,0.00,,---,0.00,VWS V14.01,2013-03-30 20:51:00,
2013-03-30 16:58:00,76.5,44.4,30.24,SW,225,3.8,3.8,32,0.00,,---,0.00,VWS V14.01,2013-03-30 20:58:00,
2013-03-30 17:03:00,76.1,43.3,30.21,WSW,248,4.3,4.3,31,0.00,,---,0.00,VWS V14.01,2013-03-30 21:03:00,
2013-03-30 17:08:00,75.9,43.1,30.21,NW,315,3.1,3.8,31,0.00,,---,0.00,VWS V14.01,2013-03-30 21:08:00,
2013-03-30 17:13:00,75.7,43.0,30.21,SSE,158,2.0,3.6,31,0.00,,---,0.00,VWS V14.01,2013-03-30 21:13:00,
2013-03-30 17:18:00,75.7,43.0,30.21,SSW,202,3.4,3.4,31,0.00,,---,0.00,VWS V14.01,2013-03-30 21:18:00,
2013-03-30 17:23:00,75.4,43.5,30.21,SSW,202,3.6,3.6,32,0.00,,---,0.00,VWS V14.01,2013-03-30 21:23:00,
2013-03-30 17:28:00,75.0,43.2,30.21,SSE,158,3.8,5.8,32,0.00,,---,0.00,VWS V14.01,2013-03-30 21:28:00,
2013-03-30 17:34:00,74.8,43.0,30.21,SSW,202,6.0,6.0,32,0.00,,---,0.00,VWS V14.01,2013-03-30 21:34:00,
2013-03-30 17:39:00,75.0,43.2,30.21,SW,225,3.8,3.8,32,0.00,,---,0.00,VWS V14.01,2013-03-30 21:39:00,
2013-03-30 17:44:00,74.8,43.0,30.21,SSW,202,2.7,3.4,32,0.00,,---,0.00,VWS V14.01,2013-03-30 21:44:00,
2013-03-30 17:50:00,74.8,43.0,30.24,South,180,2.9,3.4,32,0.00,,---,0.00,VWS V14.01,2013-03-30 21:50:00,
2013-03-30 17:55:00,74.8,43.8,30.24,SSW,202,2.0,3.1,33,0.00,,---,0.00,VWS V14.01,2013-03-30 21:55:00,
2013-03-30 18:00:00,74.5,43.5,30.24,North,0,2.0,5.6,33,0.00,,---,0.00,VWS V14.01,2013-03-30 22:00:00,
2013-03-30 18:05:00,74.1,43.2,30.24,West,270,2.9,2.9,33,0.00,,---,0.00,VWS V14.01,2013-03-30 22:05:00,
2013-03-30 18:11:00,74.1,43.2,30.24,SW,225,4.3,4.3,33,0.00,,---,0.00,VWS V14.01,2013-03-30 22:11:00,
2013-03-30 18:17:00,73.9,43.0,30.24,SSE,158,0.0,4.0,33,0.00,,---,0.00,VWS V14.01,2013-03-30 22:17:00,
2013-03-30 18:22:00,73.6,42.7,30.24,SW,225,5.4,5.4,33,0.00,,---,0.00,VWS V14.01,2013-03-30 22:22:00,
2013-03-30 18:29:00,73.4,42.6,30.24,WSW,248,1.1,1.1,33,0.00,,---,0.00,VWS V14.01,2013-03-30 22:29:00,
2013-03-30 18:34:00,73.4,43.3,30.24,WSW,248,2.5,2.5,34,0.00,,---,0.00,VWS V14.01,2013-03-30 22:34:00,
2013-03-30 18:39:00,73.6,43.5,30.24,WNW,292,2.7,4.0,34,0.00,,---,0.00,VWS V14.01,2013-03-30 22:39:00,
2013-03-30 18:44:00,73.8,43.7,30.24,West,270,2.7,2.7,34,0.00,,---,0.00,VWS V14.01,2013-03-30 22:44:00,
2013-03-30 18:49:00,73.4,43.3,30.24,SSW,202,0.0,4.0,34,0.00,,---,0.00,VWS V14.01,2013-03-30 22:49:00,
2013-03-30 18:54:00,73.4,43.3,30.24,NNE,22,2.9,2.9,34,0.00,,---,0.00,VWS V14.01,2013-03-30 22:54:00,
2013-03-30 19:00:00,73.2,44.0,30.24,North,0,1.1,2.5,35,0.00,,---,0.00,VWS V14.01,2013-03-30 23:00:00,
2013-03-30 19:05:00,72.9,43.6,30.24,ENE,68,0.0,1.3,35,0.00,,---,0.00,VWS V14.01,2013-03-30 23:05:00,
2013-03-30 19:10:00,72.5,43.3,30.24,NW,315,3.4,3.4,35,0.00,,---,0.00,VWS V14.01,2013-03-30 23:10:00,
2013-03-30 19:15:00,72.1,43.7,30.24,NW,315,3.4,3.4,36,0.00,,---,0.00,VWS V14.01,2013-03-30 23:15:00,
2013-03-30 19:20:00,72.0,43.6,30.24,NW,315,3.4,3.4,36,0.00,,---,0.00,VWS V14.01,2013-03-30 23:20:00,
2013-03-30 19:25:00,71.6,43.3,30.24,West,270,0.0,2.5,36,0.00,,---,0.00,VWS V14.01,2013-03-30 23:25:00,
2013-03-30 19:31:00,71.1,43.5,30.24,West,270,2.5,2.9,37,0.00,,---,0.00,VWS V14.01,2013-03-30 23:31:00,
2013-03-30 19:36:00,70.9,44.0,30.24,West,270,0.0,1.3,38,0.00,,---,0.00,VWS V14.01,2013-03-30 23:36:00,
2013-03-30 19:42:00,70.7,43.9,30.24,WNW,292,0.0,1.6,38,0.00,,---,0.00,VWS V14.01,2013-03-30 23:42:00,
2013-03-30 19:47:00,70.3,44.2,30.24,West,270,1.6,1.6,39,0.00,,---,0.00,VWS V14.01,2013-03-30 23:47:00,
2013-03-30 19:52:00,70.0,44.6,30.24,WSW,248,0.0,2.2,40,0.00,,---,0.00,VWS V14.01,2013-03-30 23:52:00,
2013-03-30 19:57:00,69.8,44.4,30.24,West,270,0.0,1.6,40,0.00,,---,0.00,VWS V14.01,2013-03-30 23:57:00,
2013-03-30 20:03:00,69.6,44.9,30.24,SW,225,0.0,0.0,41,0.00,,---,0.00,VWS V14.01,2013-03-31 00:03:00,
2013-03-30 20:09:00,69.3,45.2,30.24,SW,225,0.0,0.0,42,0.00,,---,0.00,VWS V14.01,2013-03-31 00:09:00,
2013-03-30 20:15:00,69.1,45.7,30.24,WNW,292,1.6,2.0,43,0.00,,---,0.00,VWS V14.01,2013-03-31 00:15:00,
2013-03-30 20:20:00,68.7,45.3,30.24,NNW,338,2.0,2.9,43,0.00,,---,0.00,VWS V14.01,2013-03-31 00:20:00,
2013-03-30 20:25:00,68.5,45.2,30.24,West,270,0.0,0.0,43,0.00,,---,0.00,VWS V14.01,2013-03-31 00:25:00,
2013-03-30 20:31:00,68.4,45.0,30.24,South,180,0.0,0.0,43,0.00,,---,0.00,VWS V14.01,2013-03-31 00:31:00,
2013-03-30 20:36:00,68.4,45.0,30.24,WSW,248,0.0,0.0,43,0.00,,---,0.00,VWS V14.01,2013-03-31 00:36:00,
2013-03-30 20:43:00,68.2,45.5,30.24,WSW,248,0.0,1.1,44,0.00,,---,0.00,VWS V14.01,2013-03-31 00:43:00,
2013-03-30 20:48:00,68.0,45.3,30.24,WSW,248,0.0,0.0,44,0.00,,---,0.00,VWS V14.01,2013-03-31 00:48:00,
2013-03-30 20:53:00,67.6,45.6,30.24,WSW,248,0.0,0.9,45,0.00,,---,0.00,VWS V14.01,2013-03-31 00:53:00,
2013-03-30 20:58:00,67.5,46.0,30.24,SSW,202,0.0,0.0,46,0.00,,---,0.00,VWS V14.01,2013-03-31 00:58:00,
2013-03-30 21:03:00,67.3,45.8,30.24,WSW,248,0.0,0.0,46,0.00,,---,0.00,VWS V14.01,2013-03-31 01:03:00,
2013-03-30 21:09:00,67.1,46.2,30.24,SSW,202,0.0,3.1,47,0.00,,---,0.00,VWS V14.01,2013-03-31 01:09:00,
2013-03-30 21:14:00,66.9,46.0,30.24,SSW,202,0.0,0.0,47,0.00,,---,0.00,VWS V14.01,2013-03-31 01:14:00,
2013-03-30 21:20:00,66.9,46.6,30.24,SW,225,0.0,0.0,48,0.00,,---,0.00,VWS V14.01,2013-03-31 01:20:00,
2013-03-30 21:25:00,66.7,46.5,30.24,WSW,248,0.0,0.0,48,0.00,,---,0.00,VWS V14.01,2013-03-31 01:25:00,
2013-03-30 21:31:00,66.6,46.3,30.24,SE,135,0.0,0.0,48,0.00,,---,0.00,VWS V14.01,2013-03-31 01:31:00,
2013-03-30 21:37:00,66.4,46.7,30.24,SW,225,0.0,0.0,49,0.00,,---,0.00,VWS V14.01,2013-03-31 01:37:00,
2013-03-30 21:42:00,66.2,46.5,30.24,SE,135,0.0,0.0,49,0.00,,---,0.00,VWS V14.01,2013-03-31 01:42:00,
2013-03-30 21:48:00,66.2,46.5,30.24,WSW,248,0.0,0.0,49,0.00,,---,0.00,VWS V14.01,2013-03-31 01:48:00,
2013-03-30 21:53:00,66.0,46.9,30.24,SW,225,0.0,0.0,50,0.00,,---,0.00,VWS V14.01,2013-03-31 01:53:00,
2013-03-30 21:58:00,65.8,46.7,30.24,NE,45,0.0,0.0,50,0.00,,---,0.00,VWS V14.01,2013-03-31 01:58:00,
2013-03-30 22:03:00,65.8,47.2,30.24,ENE,68,0.0,0.0,51,0.00,,---,0.00,VWS V14.01,2013-03-31 02:03:00,
2013-03-30 22:09:00,65.7,47.1,30.24,ENE,68,0.0,0.0,51,0.00,,---,0.00,VWS V14.01,2013-03-31 02:09:00,
2013-03-30 22:16:00,65.3,47.2,30.24,ENE,68,0.0,0.0,52,0.00,,---,0.00,VWS V14.01,2013-03-31 02:16:00,
2013-03-30 22:21:00,64.9,46.9,30.27,ENE,68,0.0,0.0,52,0.00,,---,0.00,VWS V14.01,2013-03-31 02:21:00,
2013-03-30 22:27:00,64.8,47.2,30.27,ENE,68,0.0,0.0,53,0.00,,---,0.00,VWS V14.01,2013-03-31 02:27:00,
2013-03-30 22:33:00,64.6,47.1,30.27,ENE,68,0.0,0.0,53,0.00,,---,0.00,VWS V14.01,2013-03-31 02:33:00,
2013-03-30 22:38:00,64.2,47.2,30.27,ENE,68,0.0,0.0,54,0.00,,---,0.00,VWS V14.01,2013-03-31 02:38:00,
2013-03-30 22:44:00,64.0,47.6,30.27,ENE,68,0.0,0.0,55,0.00,,---,0.00,VWS V14.01,2013-03-31 02:44:00,
2013-03-30 22:50:00,63.9,47.4,30.27,ENE,68,0.0,0.0,55,0.00,,---,0.00,VWS V14.01,2013-03-31 02:50:00,
2013-03-30 22:55:00,63.7,47.7,30.27,ENE,68,0.0,0.0,56,0.00,,---,0.00,VWS V14.01,2013-03-31 02:55:00,
2013-03-30 23:00:00,63.5,47.5,30.27,ENE,68,0.0,0.0,56,0.00,,---,0.00,VWS V14.01,2013-03-31 03:00:00,
2013-03-30 23:05:00,63.3,47.8,30.27,ENE,68,0.0,0.0,57,0.00,,---,0.00,VWS V14.01,2013-03-31 03:05:00,
2013-03-30 23:10:00,63.1,47.7,30.27,ENE,68,0.0,0.0,57,0.00,,---,0.00,VWS V14.01,2013-03-31 03:10:00,
2013-03-30 23:16:00,63.1,47.7,30.27,ENE,68,1.3,1.3,57,0.00,,---,0.00,VWS V14.01,2013-03-31 03:16:00,
2013-03-30 23:21:00,63.0,47.5,30.27,East,90,0.9,2.2,57,0.00,,---,0.00,VWS V14.01,2013-03-31 03:21:00,
2013-03-30 23:28:00,63.0,48.0,30.27,East,90,0.0,0.0,58,0.00,,---,0.00,VWS V14.01,2013-03-31 03:28:00,
2013-03-30 23:33:00,62.8,47.8,30.27,East,90,1.6,1.6,58,0.00,,---,0.00,VWS V14.01,2013-03-31 03:33:00,
2013-03-30 23:38:00,62.8,47.8,30.27,East,90,0.9,0.9,58,0.00,,---,0.00,VWS V14.01,2013-03-31 03:38:00,
2013-03-30 23:45:00,62.6,47.6,30.27,East,90,0.0,0.9,58,0.00,,---,0.00,VWS V14.01,2013-03-31 03:45:00,
2013-03-30 23:53:00,62.4,47.9,30.27,East,90,0.0,1.6,59,0.00,,---,0.00,VWS V14.01,2013-03-31 03:53:00,
2013-03-30 23:58:00,62.4,47.9,30.27,East,90,0.0,1.1,59,0.00,,---,0.00,VWS V14.01,2013-03-31 03:58:00,